FREGAT DEB, 45843

Orbit data source: Space-Track

FREGAT DEB, 45843 is space debris in LEO originally from a launch on Mon, 18 Jul 2011 UTC launched from the Tyuratam Missile And Space Complex (TTMTR). Debris objects in space refer to the collection of defunct objects orbiting the Earth. Examples of debris include non-operational satellites, rocket bodies, and fragments generated from explosions, collisions, or faulty payload assembly.

Loading next visibility...
Identifier
45843, 2011-037CD
Orbit
LEO
Country
Flag of CISCIS
Related business
Manufacturer
Lavochkin
Mission
Spacecraft
Bus & Motor
Unknown
Mass
Unknown
Launch date (UTC)
2011-07-18 (14 years ago)
Launch vehicle
Unknown
Launch site
Tyuratam Missile And Space Complex (TTMTR)
Object type
Payload
Rocket body
Debris
Shape & HBR
Unknown shape, 0.1 m
Radar Cross Section
Small (<0.1 m²)

Expand to show TLE details & history
Last TLE update: 20 hours ago

TLE from 20 hours ago
0 FREGAT DEB
1 45843U 11037CD  25298.98240269  .00019910  00000-0  16943+0 0  9994
2 45843  51.2487 191.1339 1725876  29.6227 339.1977 10.22520949 20672
Epoch: 2025-10-25T23:34Z
TLE epoch observation values (Epoch: 2025-10-25T23:34:39.592Z)
Latitude
-0.00002°
Longitude
162.86377°
Altitude
1,186.018 km
Speed
7.808 km/s
True Right ascension
12h 44m 32s
True Declination
0° 00' 00"
Sunlit
Object was in daylight at epoch
Visualization orbit readout
Latitude
Unknown
Longitude
Unknown
Altitude
Unknown
Speed
Unknown
Apparent Right ascension
Unknown
Apparent Declination
Unknown
Sunlit
N/A
Visualization observer readout
Local Sidereal Time
15:18:01
Azimuth
Unknown
Elevation
Unknown
Doppler factor
Unknown
Orbital elements
Apogee altitude
4,136.342 km
Perigee altitude
1,041.19 km
Semi-major axis
8,966.903 km
Eccentricity
0.17259
Inclination
51.2487°
RAAN
191.1339°
Arg. of periapsis
29.6227°
True anomaly
330.45734°
Mean anomaly
339.1977°
Eccentric anomaly
335.02208°
Mean motion
2.55611 °/min
Orbital period
140.84 mins
BSTAR
0.16943
Loading maneuver chart data...
Computing Atmospheric mass density...
Loading historical data...
Loading historical data...
Loading historical data...
Loading historical data...
Loading historical data...
Loading historical data...
Loading historical data...

Documentation

Showing up to 5 results
|